WXM80 ListenWXM80 Stop

You find our weather info also at:

UK Metoffice

WeatherCloud

Weather Underground

Northeastern Weather Network

AWEKAS

Citizen Weather Observer Program (CWOP)

HAMweather, WeatherForYou, PWS Weather


Weather Underground History page Text

Daily Summary for September 23, 2017 Units:  Metric    English   Both
« Previous Day
Next Day »
Daily Weekly Monthly Yearly Custom
  High: Low: Average:
Temperature: 31.3 °C 18.9 °C 23.9 °C
Dew Point: 21.8 °C 14.8 °C 17.4 °C
Humidity: 85 % 47 % 68 %
Wind Speed: 14.2 km/h 0 km/h 3.2 km/h
Wind Gust: 18.5 km/h - -
Wind:- - SE
Pressure: 1015.1 hPa 1012.4 hPa -
Precipitation: 0 mm    
Historical Graphs
 
 
Tabular Data for September 23, 2017
Time Temperature Dew Point Pressure Wind Wind Speed Wind Gust Humidity Rainfall Rate (Hourly)
00:02 21.3 °C 16.5 °C 1012.4 hPa North 8.4 km/h 12.9 km/h 74 % 0 mm
00:07 21.3 °C 16.4 °C 1012.4 hPa North 8.7 km/h 18.5 km/h 74 % 0 mm
00:12 21.3 °C 16.4 °C 1012.4 hPa North 9.5 km/h 14.8 km/h 74 % 0 mm
00:17 21.2 °C 16.6 °C 1012.4 hPa North 11.7 km/h 18.5 km/h 75 % 0 mm
00:22 21.2 °C 16.3 °C 1012.4 hPa North 8.4 km/h 13 km/h 74 % 0 mm
00:27 21.1 °C 16.3 °C 1012.8 hPa NNE 9 km/h 14.8 km/h 74 % 0 mm
00:32 21.1 °C 16.2 °C 1012.8 hPa North 8.4 km/h 13 km/h 74 % 0 mm
00:37 21.1 °C 16.4 °C 1012.8 hPa North 14.2 km/h 18.5 km/h 75 % 0 mm
00:42 21 °C 16.4 °C 1012.4 hPa NNE 11.6 km/h 13 km/h 75 % 0 mm
00:47 20.9 °C 16.3 °C 1012.4 hPa NNE 9.2 km/h 11.1 km/h 75 % 0 mm
00:52 20.9 °C 16.3 °C 1012.4 hPa NNW 7.1 km/h 14.5 km/h 75 % 0 mm
00:58 20.9 °C 16.5 °C 1012.8 hPa North 6.6 km/h 13 km/h 76 % 0 mm
01:03 20.8 °C 16.4 °C 1012.8 hPa North 8 km/h 14.8 km/h 76 % 0 mm
01:08 20.8 °C 16.4 °C 1012.8 hPa North 7.9 km/h 14.8 km/h 76 % 0 mm
01:13 20.8 °C 16.4 °C 1012.8 hPa NNE 11.1 km/h 18.5 km/h 76 % 0 mm
01:18 20.8 °C 16.4 °C 1012.8 hPa NNE 9.5 km/h 16.7 km/h 76 % 0 mm
01:23 20.9 °C 16.5 °C 1012.8 hPa NNE 9 km/h 14.8 km/h 76 % 0 mm
01:28 20.9 °C 16.5 °C 1012.8 hPa NNE 7.6 km/h 11.3 km/h 76 % 0 mm
01:33 20.9 °C 16.5 °C 1012.8 hPa NNW 4.7 km/h 7.4 km/h 76 % 0 mm
01:38 20.9 °C 16.5 °C 1012.8 hPa NE 6.9 km/h 11.1 km/h 76 % 0 mm
01:43 20.9 °C 16.3 °C 1012.8 hPa North 9.8 km/h 13 km/h 75 % 0 mm
01:48 20.9 °C 16.3 °C 1012.4 hPa North 4.7 km/h 9.3 km/h 75 % 0 mm
01:53 20.8 °C 16.2 °C 1012.4 hPa NNE 8 km/h 13 km/h 75 % 0 mm
01:58 20.8 °C 16.2 °C 1012.4 hPa North 9.3 km/h 11.1 km/h 75 % 0 mm
02:03 20.8 °C 16.2 °C 1012.4 hPa North 5.3 km/h 9.3 km/h 75 % 0 mm
02:08 20.8 °C 16.2 °C 1012.8 hPa NNE 5.6 km/h 7.4 km/h 75 % 0 mm
02:14 20.8 °C 16.2 °C 1012.8 hPa NNE 2.4 km/h 7.4 km/h 75 % 0 mm
02:19 20.7 °C 16.1 °C 1012.4 hPa NNE 6.6 km/h 13 km/h 75 % 0 mm
02:24 20.7 °C 16.1 °C 1012.4 hPa ENE 6.9 km/h 13 km/h 75 % 0 mm
02:34 20.7 °C 16.1 °C 1012.8 hPa NNE 6.8 km/h 13 km/h 75 % 0 mm
02:39 20.7 °C 16.1 °C 1012.8 hPa NE 6.4 km/h 16.7 km/h 75 % 0 mm
02:49 20.7 °C 16.3 °C 1012.4 hPa North 2.7 km/h 11.1 km/h 76 % 0 mm
02:54 20.7 °C 16.3 °C 1012.4 hPa NNE 2.7 km/h 7.4 km/h 76 % 0 mm
02:59 20.7 °C 16.3 °C 1012.4 hPa NNE 5.3 km/h 11.3 km/h 76 % 0 mm
03:02 20.7 °C 16.1 °C 1012.4 hPa NNE 3.7 km/h 7.4 km/h 75 % 0 mm
03:07 20.7 °C 16.3 °C 1012.4 hPa NNE 4.2 km/h 9.3 km/h 76 % 0 mm
03:12 20.7 °C 16.1 °C 1012.4 hPa North 6.4 km/h 9.3 km/h 75 % 0 mm
03:17 20.7 °C 16.1 °C 1012.8 hPa North 7.6 km/h 9.3 km/h 75 % 0 mm
03:23 20.7 °C 16.3 °C 1012.8 hPa NNE 4.3 km/h 5.6 km/h 76 % 0 mm
03:28 20.7 °C 16.1 °C 1012.8 hPa NNE 6.4 km/h 9.3 km/h 75 % 0 mm
03:33 20.7 °C 16.1 °C 1012.4 hPa NNE 4.7 km/h 11.1 km/h 75 % 0 mm
03:38 20.7 °C 15.9 °C 1012.8 hPa NNE 7.7 km/h 16.7 km/h 74 % 0 mm
03:43 20.7 °C 15.9 °C 1012.4 hPa NNE 4.8 km/h 7.4 km/h 74 % 0 mm
03:48 20.8 °C 15.8 °C 1012.4 hPa NNE 7.4 km/h 9.7 km/h 73 % 0 mm
03:53 20.8 °C 16 °C 1012.4 hPa NNE 10.1 km/h 14.8 km/h 74 % 0 mm
03:58 20.8 °C 16.2 °C 1012.4 hPa NNE 11.7 km/h 18.5 km/h 75 % 0 mm
04:03 20.9 °C 16.3 °C 1012.4 hPa NNE 7.4 km/h 11.1 km/h 75 % 0 mm
04:08 20.9 °C 16.3 °C 1012.4 hPa North 7.1 km/h 14.8 km/h 75 % 0 mm
04:13 20.9 °C 16.1 °C 1012.4 hPa North 6.1 km/h 9.3 km/h 74 % 0 mm
04:18 21 °C 16.4 °C 1012.4 hPa NE 3.7 km/h 9.3 km/h 75 % 0 mm
04:23 21 °C 16.4 °C 1012.4 hPa NE 5.8 km/h 7.4 km/h 75 % 0 mm
04:28 21 °C 16.4 °C 1012.4 hPa NNE 6.1 km/h 13 km/h 75 % 0 mm
04:33 20.9 °C 16.3 °C 1012.4 hPa NNE 7.9 km/h 11.1 km/h 75 % 0 mm
04:38 20.8 °C 16.2 °C 1012.4 hPa NNE 7.9 km/h 14.5 km/h 75 % 0 mm
04:43 20.8 °C 16.2 °C 1012.4 hPa NNE 5.1 km/h 11.3 km/h 75 % 0 mm
04:48 20.7 °C 16.1 °C 1012.4 hPa NNE 5.5 km/h 9.3 km/h 75 % 0 mm
04:53 20.7 °C 16.1 °C 1012.4 hPa North 4.2 km/h 14.8 km/h 75 % 0 mm
04:58 20.6 °C 16 °C 1012.4 hPa NNW 6.4 km/h 13 km/h 75 % 0 mm
05:03 20.6 °C 16 °C 1012.4 hPa NNE 2.3 km/h 6.4 km/h 75 % 0 mm
05:08 20.6 °C 16 °C 1012.4 hPa NNE 7.6 km/h 11.1 km/h 75 % 0 mm
05:13 20.6 °C 16 °C 1012.4 hPa NW 2.3 km/h 5.6 km/h 75 % 0 mm
05:18 20.6 °C 16 °C 1012.4 hPa NW 4.2 km/h 9.3 km/h 75 % 0 mm
05:23 20.7 °C 16.1 °C 1012.8 hPa Calm   1.9 km/h 75 % 0 mm
05:28 20.7 °C 16.3 °C 1012.8 hPa North 3.5 km/h 9.7 km/h 76 % 0 mm
05:33 20.7 °C 16.1 °C 1013.1 hPa North 5.6 km/h 8 km/h 75 % 0 mm
05:38 20.7 °C 16.3 °C 1013.1 hPa NNW 4.3 km/h 9.3 km/h 76 % 0 mm
05:43 20.7 °C 16.3 °C 1013.1 hPa NNE 0.6 km/h 3.7 km/h 76 % 0 mm
05:48 20.7 °C 16.3 °C 1013.1 hPa NNE 1.8 km/h 1.9 km/h 76 % 0 mm
05:53 20.7 °C 16.3 °C 1013.1 hPa North 3.7 km/h 6.4 km/h 76 % 0 mm
05:58 20.8 °C 16.6 °C 1013.1 hPa North 1.6 km/h 5.6 km/h 77 % 0 mm
06:03 20.8 °C 16.8 °C 1013.1 hPa NNE 2.7 km/h 7.4 km/h 78 % 0 mm
06:09 20.9 °C 16.9 °C 1013.1 hPa NNE 2.7 km/h 5.6 km/h 78 % 0 mm
06:14 20.9 °C 16.7 °C 1013.1 hPa North 4.7 km/h 5.6 km/h 77 % 0 mm
06:19 20.9 °C 16.6 °C 1013.1 hPa NNW 1.6 km/h 9.3 km/h 76 % 0 mm
06:24 21 °C 16.8 °C 1013.1 hPa NNW 0.3 km/h 3.7 km/h 77 % 0 mm
06:29 21 °C 16.8 °C 1013.1 hPa NNW 0.3 km/h 3.7 km/h 77 % 0 mm
06:34 21 °C 16.8 °C 1013.1 hPa North 0.3 km/h 1.9 km/h 77 % 0 mm
06:39 21 °C 16.8 °C 1013.1 hPa Calm     77 % 0 mm
06:44 21 °C 16.6 °C 1013.1 hPa North 3.7 km/h 5.6 km/h 76 % 0 mm
06:49 20.9 °C 16.3 °C 1013.1 hPa NNE 2.3 km/h 5.6 km/h 75 % 0 mm
06:54 20.9 °C 16.3 °C 1013.1 hPa NNE 2.4 km/h 5.6 km/h 75 % 0 mm
06:59 20.9 °C 16.3 °C 1013.1 hPa North 4 km/h 5.6 km/h 75 % 0 mm
07:04 20.8 °C 16.4 °C 1013.4 hPa Calm     76 % 0 mm
07:09 20.8 °C 16.7 °C 1013.4 hPa NW 3.4 km/h 7.4 km/h 77 % 0 mm
07:14 20.8 °C 16.6 °C 1013.4 hPa North 0.3 km/h 9.3 km/h 77 % 0 mm
07:19 20.7 °C 16.6 °C 1013.1 hPa WNW 2.6 km/h 5.6 km/h 77 % 0 mm
07:24 20.6 °C 16.4 °C 1013.4 hPa North 3.4 km/h 8 km/h 77 % 0 mm
07:29 20.6 °C 16.4 °C 1013.1 hPa NNE 1.1 km/h 5.6 km/h 77 % 0 mm
07:34 20.5 °C 16.1 °C 1013.4 hPa North 3.9 km/h 7.4 km/h 76 % 0 mm
07:39 20.5 °C 16.1 °C 1013.4 hPa NNE 0.6 km/h 5.6 km/h 76 % 0 mm
07:44 20.5 °C 16.3 °C 1013.4 hPa NNW 1.3 km/h 3.7 km/h 77 % 0 mm
07:49 20.5 °C 16.1 °C 1013.4 hPa NW 0.6 km/h 5.6 km/h 76 % 0 mm
07:50 20.5 °C 16.1 °C 1013.4 hPa NW 1.4 km/h 1.9 km/h 76 % 0 mm
07:55 20.4 °C 16.1 °C 1013.4 hPa NNE 4.8 km/h 7.4 km/h 76 % 0 mm
08:00 20.4 °C 16.1 °C 1013.8 hPa NNE 4.7 km/h 9.3 km/h 76 % 0 mm
08:05 20.4 °C 16.1 °C 1013.8 hPa NNW 2.9 km/h 7.4 km/h 76 % 0 mm
08:10 20.4 °C 16.1 °C 1013.8 hPa NNE 2.3 km/h 9.3 km/h 76 % 0 mm
08:15 20.5 °C 16.1 °C 1013.8 hPa NNW 7.1 km/h 7.4 km/h 76 % 0 mm
08:21 20.6 °C 16.2 °C 1013.8 hPa North 4.8 km/h 11.3 km/h 76 % 0 mm
08:26 20.6 °C 16.2 °C 1013.8 hPa North 8 km/h 9.7 km/h 76 % 0 mm
08:31 20.7 °C 16.1 °C 1013.8 hPa NNE 8 km/h 11.3 km/h 75 % 0 mm
08:36 20.8 °C 16.2 °C 1014.1 hPa NNE 4 km/h 7.4 km/h 75 % 0 mm
08:41 20.9 °C 16.5 °C 1014.1 hPa North 4.8 km/h 11.3 km/h 76 % 0 mm
08:46 20.9 °C 16.3 °C 1014.1 hPa North 8 km/h 14.5 km/h 75 % 0 mm
08:51 21.1 °C 16.2 °C 1014.1 hPa North 8 km/h 12.9 km/h 74 % 0 mm
09:01 21.2 °C 16.1 °C 1014.4 hPa North 9 km/h 14.8 km/h 73 % 0 mm
09:06 21.3 °C 16.4 °C 1014.4 hPa NNE 4.3 km/h 11.1 km/h 74 % 0 mm
09:11 21.3 °C 16.5 °C 1014.8 hPa NNE 10.6 km/h 13 km/h 74 % 0 mm
09:16 21.4 °C 16.6 °C 1014.8 hPa North 8.2 km/h 14.8 km/h 74 % 0 mm
09:21 21.5 °C 17.1 °C 1014.8 hPa North 4.8 km/h 7.4 km/h 76 % 0 mm
09:26 21.6 °C 17.4 °C 1015.1 hPa NNE 1.1 km/h 5.6 km/h 77 % 0 mm
09:31 21.7 °C 17.5 °C 1014.8 hPa NNE 3.4 km/h 13 km/h 77 % 0 mm
09:36 21.8 °C 17.8 °C 1015.1 hPa NNE 3.5 km/h 7.4 km/h 78 % 0 mm
09:41 21.9 °C 17.9 °C 1014.8 hPa North 8.4 km/h 13 km/h 78 % 0 mm
09:51 22.1 °C 17.8 °C 1014.8 hPa NNE 3.7 km/h 5.6 km/h 77 % 0 mm
09:56 22.2 °C 17.9 °C 1014.8 hPa ENE 4.7 km/h 9.3 km/h 77 % 0 mm
10:01 22.3 °C 18.1 °C 1014.4 hPa ENE 4.3 km/h 9.3 km/h 77 % 0 mm
10:06 22.4 °C 18.2 °C 1014.8 hPa NNE 4.2 km/h 11.1 km/h 77 % 0 mm
10:11 22.5 °C 18.3 °C 1014.8 hPa NNE 2.9 km/h 5.6 km/h 77 % 0 mm
10:16 22.6 °C 18.4 °C 1014.8 hPa NE 2.1 km/h 5.6 km/h 77 % 0 mm
10:21 22.8 °C 18.6 °C 1014.8 hPa ENE 3.1 km/h 5.6 km/h 77 % 0 mm
10:26 23 °C 18.9 °C 1014.8 hPa NNE 1.6 km/h 3.7 km/h 78 % 0 mm
10:31 23.2 °C 19.1 °C 1014.8 hPa North 2.3 km/h 5.6 km/h 78 % 0 mm
10:36 23.3 °C 19.3 °C 1014.8 hPa NE 2.3 km/h 4.8 km/h 78 % 0 mm
10:41 23.4 °C 19.2 °C 1014.8 hPa North 3.2 km/h 5.6 km/h 77 % 0 mm
10:46 23.6 °C 19.3 °C 1014.8 hPa NNE 2.4 km/h 5.6 km/h 77 % 0 mm
10:51 23.6 °C 19.1 °C 1014.8 hPa NW 1.1 km/h 5.6 km/h 76 % 0 mm
10:56 23.7 °C 18.9 °C 1014.8 hPa North 3.7 km/h 7.4 km/h 75 % 0 mm
11:01 23.8 °C 19.1 °C 1014.8 hPa NNE 4.5 km/h 6.4 km/h 75 % 0 mm
11:06 23.9 °C 19.4 °C 1014.8 hPa NNE 4.5 km/h 5.6 km/h 76 % 0 mm
11:10 24.1 °C 19.8 °C 1014.8 hPa NNE 5.1 km/h 9.3 km/h 77 % 0 mm
11:15 24.5 °C 19.8 °C 1014.8 hPa NNE 5.5 km/h 9.7 km/h 75 % 0 mm
11:20 25.1 °C 20.5 °C 1014.8 hPa NNW 2.6 km/h 5.6 km/h 76 % 0 mm
11:25 25.7 °C 20.7 °C 1014.8 hPa NNE 4.7 km/h 5.6 km/h 74 % 0 mm
11:30 26.3 °C 20.4 °C 1014.8 hPa NNE 4.3 km/h 7.4 km/h 70 % 0 mm
11:35 26.9 °C 20.5 °C 1014.8 hPa NNE 2.4 km/h 5.6 km/h 68 % 0 mm
11:40 27.4 °C 20.5 °C 1014.4 hPa North 4.3 km/h 5.6 km/h 66 % 0 mm
11:46 27.8 °C 21.1 °C 1014.8 hPa NNW 1 km/h 5.6 km/h 67 % 0 mm
11:51 28.3 °C 21.1 °C 1014.8 hPa North 1.4 km/h 5.6 km/h 65 % 0 mm
11:56 28.6 °C 20.6 °C 1014.4 hPa North 4.8 km/h 11.3 km/h 62 % 0 mm
12:01 28.9 °C 21.1 °C 1014.8 hPa NNE 5.6 km/h 9.3 km/h 63 % 0 mm
12:06 29.1 °C 20.5 °C 1014.8 hPa NW 3.2 km/h 7.4 km/h 60 % 0 mm
12:11 29.2 °C 21.2 °C 1014.8 hPa Calm   1.9 km/h 62 % 0 mm
12:16 29.6 °C 21.5 °C 1014.4 hPa NNW 1 km/h 3.7 km/h 62 % 0 mm
12:21 29.8 °C 20.9 °C 1014.4 hPa NNW 0.6 km/h 5.6 km/h 59 % 0 mm
12:26 30 °C 21.4 °C 1014.4 hPa North 3.1 km/h 5.6 km/h 60 % 0 mm
12:31 30.1 °C 21.4 °C 1014.4 hPa NNE 3.2 km/h 5.6 km/h 60 % 0 mm
12:36 30.2 °C 21.8 °C 1014.4 hPa NNE 3.2 km/h 5.6 km/h 61 % 0 mm
12:41 30.3 °C 21.2 °C 1014.4 hPa NNE 2.4 km/h 7.4 km/h 58 % 0 mm
12:46 30.4 °C 21.2 °C 1014.4 hPa NNE 2.7 km/h 5.6 km/h 58 % 0 mm
12:51 30.5 °C 20.4 °C 1014.4 hPa NNE 4.7 km/h 7.4 km/h 55 % 0 mm
12:56 30.6 °C 21.4 °C 1014.1 hPa NNE 3.5 km/h 8 km/h 58 % 0 mm
13:01 30.8 °C 21 °C 1014.1 hPa North 5 km/h 7.4 km/h 56 % 0 mm
13:06 30.9 °C 21.1 °C 1014.1 hPa North 3.1 km/h 5.6 km/h 56 % 0 mm
13:11 30.9 °C 21.4 °C 1014.1 hPa North 0.5 km/h 1.9 km/h 57 % 0 mm
13:16 31 °C 21.5 °C 1014.1 hPa North 4 km/h 5.6 km/h 57 % 0 mm
13:21 31.1 °C 21.6 °C 1014.1 hPa WNW 3.2 km/h 5.6 km/h 57 % 0 mm
13:26 31.1 °C 20.3 °C 1014.1 hPa WNW 4.5 km/h 9.3 km/h 53 % 0 mm
13:31 31.2 °C 20.4 °C 1014.1 hPa NNE 1 km/h 3.7 km/h 53 % 0 mm
13:36 31.2 °C 20.8 °C 1014.1 hPa NW 4.5 km/h 7.4 km/h 54 % 0 mm
13:41 31.2 °C 20.8 °C 1014.1 hPa NNE 4.3 km/h 8 km/h 54 % 0 mm
13:46 31.2 °C 20.5 °C 1013.8 hPa NW 3.9 km/h 7.4 km/h 53 % 0 mm
13:51 31.3 °C 20.2 °C 1013.8 hPa NW 1.4 km/h 7.4 km/h 52 % 0 mm
13:56 31.3 °C 20.9 °C 1013.8 hPa North 4.3 km/h 7.4 km/h 54 % 0 mm
14:01 31.3 °C 20.3 °C 1013.8 hPa NNW 5.3 km/h 7.4 km/h 52 % 0 mm
14:06 31.2 °C 20.5 °C 1013.8 hPa NNE 3.9 km/h 9.3 km/h 53 % 0 mm
14:12 31.2 °C 20.2 °C 1013.8 hPa NNW 7.9 km/h 14.8 km/h 52 % 0 mm
14:17 31.1 °C 20.9 °C 1013.8 hPa NNW 7.2 km/h 9.3 km/h 55 % 0 mm
14:22 30.9 °C 20.6 °C 1013.8 hPa NNE 3.4 km/h 5.6 km/h 54 % 0 mm
14:27 30.9 °C 20.8 °C 1013.8 hPa WNW 2.9 km/h 5.6 km/h 55 % 0 mm
14:32 31.1 °C 21.2 °C 1013.8 hPa NNE 2.4 km/h 7.4 km/h 56 % 0 mm
14:37 31.1 °C 21.2 °C 1013.8 hPa NNE 6.8 km/h 13 km/h 56 % 0 mm
14:42 31.1 °C 20.7 °C 1013.8 hPa WNW 4 km/h 6.4 km/h 54 % 0 mm
14:47 31.1 °C 20.4 °C 1013.4 hPa NW 1.3 km/h 3.7 km/h 53 % 0 mm
14:52 31.1 °C 19.8 °C 1013.4 hPa NW 1.3 km/h 5.6 km/h 51 % 0 mm
14:57 31.2 °C 19.8 °C 1013.4 hPa WNW 4.5 km/h 7.4 km/h 51 % 0 mm
15:02 31.2 °C 19.2 °C 1013.4 hPa WNW 4.5 km/h 7.4 km/h 49 % 0 mm
15:07 31.2 °C 19.2 °C 1013.4 hPa WNW 3.4 km/h 5.6 km/h 49 % 0 mm
15:12 31.2 °C 19.2 °C 1013.4 hPa NW 1.9 km/h 4.8 km/h 49 % 0 mm
15:17 31.2 °C 18.8 °C 1013.4 hPa NNW 2.7 km/h 6.4 km/h 48 % 0 mm
15:22 31.2 °C 18.8 °C 1013.4 hPa NW 1.4 km/h 5.6 km/h 48 % 0 mm
15:27 31.1 °C 19.1 °C 1013.4 hPa NW 0.3 km/h 5.6 km/h 49 % 0 mm
15:33 30.9 °C 19.6 °C 1013.1 hPa Calm   5.6 km/h 51 % 0 mm
15:38 30.9 °C 19.6 °C 1013.1 hPa North 2.4 km/h 5.6 km/h 51 % 0 mm
15:43 30.9 °C 19 °C 1013.1 hPa NW 0.6 km/h 5.6 km/h 49 % 0 mm
15:48 31 °C 19.3 °C 1013.1 hPa NNW 0.5 km/h 5.6 km/h 50 % 0 mm
15:53 31 °C 19.3 °C 1013.1 hPa WNW 3.4 km/h 6.4 km/h 50 % 0 mm
15:58 30.9 °C 19.3 °C 1013.1 hPa NNW 1.4 km/h 5.6 km/h 50 % 0 mm
16:03 30.7 °C 19.1 °C 1013.1 hPa North 1.6 km/h 5.6 km/h 50 % 0 mm
16:08 30.4 °C 19.2 °C 1013.1 hPa North 0.3 km/h 5.6 km/h 51 % 0 mm
16:13 30.2 °C 19.2 °C 1013.1 hPa NNE 1 km/h 1.9 km/h 52 % 0 mm
16:18 29.8 °C 18.9 °C 1013.1 hPa NNW 1.3 km/h 5.6 km/h 52 % 0 mm
16:23 29.7 °C 19.1 °C 1013.1 hPa NNE 2.6 km/h 7.4 km/h 53 % 0 mm
16:29 29.4 °C 18.8 °C 1013.1 hPa WNW 1.9 km/h 5.6 km/h 53 % 0 mm
16:34 29.3 °C 18.7 °C 1013.1 hPa NNE 1.6 km/h 5.6 km/h 53 % 0 mm
16:39 29.1 °C 18.3 °C 1013.1 hPa North 1.3 km/h 7.4 km/h 52 % 0 mm
16:44 28.9 °C 18.3 °C 1013.1 hPa NNE 1.8 km/h 8 km/h 53 % 0 mm
16:49 28.7 °C 17.3 °C 1013.1 hPa NNE 5.8 km/h 9.3 km/h 50 % 0 mm
16:54 28.6 °C 17.5 °C 1013.1 hPa NE 1.9 km/h 5.6 km/h 51 % 0 mm
16:59 28.6 °C 17.7 °C 1013.1 hPa NNW 2.6 km/h 5.6 km/h 52 % 0 mm
17:04 28.5 °C 17.1 °C 1013.1 hPa NE 4.2 km/h 11.1 km/h 50 % 0 mm
17:09 28.3 °C 16.9 °C 1013.1 hPa North 2.4 km/h 6.4 km/h 50 % 0 mm
17:14 28.2 °C 16.8 °C 1013.1 hPa North 1.8 km/h 5.6 km/h 50 % 0 mm
17:19 28.1 °C 16.9 °C 1013.1 hPa NNW 2.6 km/h 5.6 km/h 51 % 0 mm
17:24 27.9 °C 16.2 °C 1013.1 hPa NNE 3.5 km/h 3.7 km/h 49 % 0 mm
17:30 27.8 °C 15.8 °C 1013.1 hPa North 1.1 km/h 5.6 km/h 48 % 0 mm
17:34 27.6 °C 15.3 °C 1013.1 hPa North 1 km/h 5.6 km/h 47 % 0 mm
17:40 27.6 °C 15.6 °C 1013.1 hPa North 3.4 km/h 11.1 km/h 48 % 0 mm
17:45 27.4 °C 15.4 °C 1013.1 hPa North 6 km/h 11.1 km/h 48 % 0 mm
17:50 27.3 °C 15.3 °C 1013.1 hPa NNE 3.1 km/h 5.6 km/h 48 % 0 mm
17:55 27.3 °C 15.3 °C 1013.4 hPa North 3.1 km/h 7.4 km/h 48 % 0 mm
18:00 27.2 °C 15.2 °C 1013.1 hPa NW 4.3 km/h 7.4 km/h 48 % 0 mm
18:05 27.1 °C 14.8 °C 1013.4 hPa NNW 4 km/h 7.4 km/h 47 % 0 mm
18:10 27.1 °C 15.4 °C 1013.4 hPa North 5.1 km/h 9.3 km/h 49 % 0 mm
18:15 26.9 °C 15.6 °C 1013.4 hPa North 2.6 km/h 7.4 km/h 50 % 0 mm
18:20 26.9 °C 15.9 °C 1013.4 hPa North 2.9 km/h 5.6 km/h 51 % 0 mm
18:25 26.8 °C 16.2 °C 1013.4 hPa NNE 0.5 km/h 1.9 km/h 52 % 0 mm
18:30 26.7 °C 16.1 °C 1013.4 hPa North 1.6 km/h 4.8 km/h 52 % 0 mm
18:36 26.7 °C 16 °C 1013.4 hPa Calm   4.8 km/h 52 % 0 mm
18:41 26.6 °C 16.2 °C 1013.4 hPa Calm   3.2 km/h 53 % 0 mm
18:46 26.4 °C 16.1 °C 1013.4 hPa Calm   8 km/h 53 % 0 mm
18:51 26.3 °C 16.3 °C 1013.4 hPa Calm   3.2 km/h 54 % 0 mm
18:56 26.2 °C 16.2 °C 1013.4 hPa Calm   3.2 km/h 54 % 0 mm
19:01 26.1 °C 16.3 °C 1013.4 hPa Calm   3.7 km/h 55 % 0 mm
19:06 25.9 °C 16.2 °C 1013.4 hPa NNW 0.3 km/h 1.9 km/h 55 % 0 mm
19:11 25.8 °C 16.7 °C 1013.8 hPa Calm     57 % 0 mm
19:16 25.7 °C 16.8 °C 1013.8 hPa NNW 0.2 km/h 1.9 km/h 58 % 0 mm
19:21 25.6 °C 16.9 °C 1013.8 hPa Calm   1.9 km/h 59 % 0 mm
19:24 25.4 °C 17.1 °C 1013.8 hPa Calm     60 % 0 mm
19:29 25.3 °C 16.9 °C 1013.8 hPa Calm     60 % 0 mm
19:34 25.1 °C 17.3 °C 1013.8 hPa Calm     62 % 0 mm
19:39 24.9 °C 17.6 °C 1013.8 hPa NNW 0.2 km/h 1.9 km/h 64 % 0 mm
19:44 24.7 °C 17.4 °C 1013.8 hPa Calm     64 % 0 mm
19:49 24.4 °C 17.2 °C 1014.1 hPa Calm     64 % 0 mm
19:54 24.2 °C 17.2 °C 1014.1 hPa Calm     65 % 0 mm
19:59 23.9 °C 16.9 °C 1014.1 hPa Calm     65 % 0 mm
20:04 23.7 °C 16.9 °C 1014.1 hPa Calm     66 % 0 mm
20:09 23.4 °C 16.7 °C 1014.1 hPa Calm     66 % 0 mm
20:14 23.2 °C 16.5 °C 1014.1 hPa Calm     66 % 0 mm
20:19 23.1 °C 16.6 °C 1014.1 hPa Calm     67 % 0 mm
20:24 22.8 °C 16.6 °C 1014.1 hPa Calm     68 % 0 mm
20:29 22.7 °C 16.4 °C 1014.1 hPa NNW 0.6 km/h 3.7 km/h 68 % 0 mm
20:34 22.5 °C 16.5 °C 1014.4 hPa Calm     69 % 0 mm
20:39 22.3 °C 16.4 °C 1014.4 hPa Calm     69 % 0 mm
20:44 22.2 °C 16.2 °C 1014.4 hPa Calm     69 % 0 mm
20:50 22.1 °C 16.3 °C 1014.4 hPa Calm     70 % 0 mm
20:55 21.9 °C 16.4 °C 1014.4 hPa Calm     71 % 0 mm
21:00 21.7 °C 16.7 °C 1014.4 hPa Calm     73 % 0 mm
21:05 21.6 °C 16.3 °C 1014.4 hPa Calm     72 % 0 mm
21:10 21.4 °C 16.4 °C 1014.4 hPa Calm     73 % 0 mm
21:15 21.3 °C 16.5 °C 1014.4 hPa Calm     74 % 0 mm
21:20 21.2 °C 16.1 °C 1014.4 hPa Calm     73 % 0 mm
21:25 21.1 °C 16.2 °C 1014.4 hPa Calm   1.9 km/h 74 % 0 mm
21:30 20.9 °C 16.3 °C 1014.4 hPa Calm   3.7 km/h 75 % 0 mm
21:35 20.8 °C 16.2 °C 1014.4 hPa NNW 1.1 km/h 1.9 km/h 75 % 0 mm
21:40 20.7 °C 16.3 °C 1014.4 hPa NNW 0.6 km/h 1.9 km/h 76 % 0 mm
21:45 20.6 °C 16.2 °C 1014.4 hPa Calm     76 % 0 mm
21:50 20.4 °C 16.1 °C 1014.4 hPa Calm     76 % 0 mm
21:55 20.4 °C 16 °C 1014.8 hPa Calm     76 % 0 mm
22:00 20.3 °C 15.9 °C 1014.8 hPa Calm     76 % 0 mm
22:05 20.2 °C 16.1 °C 1014.4 hPa Calm     77 % 0 mm
22:10 20.2 °C 16 °C 1014.4 hPa Calm     77 % 0 mm
22:15 20.1 °C 16.1 °C 1014.4 hPa Calm   1.9 km/h 78 % 0 mm
22:17 20.1 °C 16.1 °C 1014.8 hPa Calm     78 % 0 mm
22:22 20 °C 16.2 °C 1014.8 hPa Calm     79 % 0 mm
22:27 19.9 °C 16.2 °C 1014.8 hPa Calm     79 % 0 mm
22:33 19.8 °C 16.3 °C 1014.8 hPa Calm     80 % 0 mm
22:38 19.8 °C 16.2 °C 1014.8 hPa Calm   1.9 km/h 80 % 0 mm
22:43 19.7 °C 16.2 °C 1014.8 hPa Calm     80 % 0 mm
22:48 19.7 °C 16.1 °C 1014.8 hPa Calm     80 % 0 mm
22:53 19.6 °C 16.3 °C 1014.8 hPa Calm     81 % 0 mm
22:58 19.6 °C 16 °C 1014.8 hPa Calm     80 % 0 mm
23:03 19.4 °C 15.9 °C 1014.8 hPa Calm     80 % 0 mm
23:08 19.4 °C 15.8 °C 1014.8 hPa Calm     80 % 0 mm
23:16 19.3 °C 16 °C 1014.8 hPa Calm     81 % 0 mm
23:21 19.2 °C 16.1 °C 1014.8 hPa Calm     82 % 0 mm
23:24 19.2 °C 16 °C 1014.8 hPa Calm     82 % 0 mm
23:26 19.2 °C 16 °C 1014.8 hPa Calm     82 % 0 mm
23:35 19.1 °C 15.9 °C 1014.8 hPa Calm     82 % 0 mm
23:40 19 °C 15.8 °C 1014.8 hPa Calm     82 % 0 mm
23:45 18.9 °C 15.8 °C 1014.8 hPa Calm     82 % 0 mm
23:50 18.9 °C 16.1 °C 1014.8 hPa Calm     84 % 0 mm
23:55 18.9 °C 16.4 °C 1014.8 hPa NNW 0.6 km/h 1.9 km/h 85 % 0 mm
Crab Meadow Weather
Compliments of Weather Underground - 3 mb

Script developed by  Jim McMurry - jmcmurry@mwt.net Adapted for the template by  Wim van der Kuil - Leuven-Template.eu

Weather Terms: Enhanced Fujita Scale or EF-Scale - A scale of wind damage intensity in which wind speeds are inferred from analysis of wind damage. All tornadoes and most other windstorms are assigned a numerical rating from this scale according to the most intense damage caused by the storm. EF0 (weak) 6585 mph, light damage EF1 (weak) 86110 mph, moderate damage EF2 (strong) 111135 mph, considerable damage EF3 (strong) 136165 mph, severe damage EF4 (violent) 166200 mph, devastating damage EF5 (violent) >200 mph, incredible damage.